Volver al catálogo

USA 479

ActivoMilitarVLEO
NORAD 62548·PAYLOAD·🇺🇸 United States

Lanzado Jan 10, 2025 desde Vandenberg Space Force Base

Loading…

Próximos Pases (próximas 24 horas)

TLE

ObsoletoSource: Mike McCants

Época: Aug 21, 2026, 20:48 UTC

1 62548U 25005S   26233.86672295 0.00000000  00000-0  00000-0 0    01
2 62548  70.0157 252.0093 0004840 225.6648 134.3351 14.96713554    02

Sigue USA 479 en tiempo real con AllMySat

Download on the App Store